,,,PA_Meas_PMT16A,,PR_Meas_QMR101_102,,RH_Meas_QMH101,,SR_Meas_QMS101,,TA_Meas_QMH101,,GenWind,,GenWind,
date,time,status,PA,status,PR,status,RH,status,SR,status,TA,status,DirAvg,status,SpdAvg,
2009-10-12, 00:00:05,VALID,1002.45,VALID,0,VALID,92.9288,VALID,0,VALID,23.0361,VALID,57,VALID,0.390625,
2009-10-12, 00:01:05,VALID,1002.46,VALID,0,VALID,92.9669,VALID,0.112286,VALID,23.0378,VALID,57,VALID,0.401953,
2009-10-12, 00:02:05,VALID,1002.45,VALID,0,VALID,93.0203,VALID,0,VALID,23.0361,VALID,57,VALID,0.33125,
2009-10-12, 00:03:05,VALID,1002.44,VALID,0,VALID,93.028,VALID,0,VALID,23.0556,VALID,57,VALID,0.246875,
2009-10-12, 00:04:05,VALID,1002.43,VALID,0,VALID,92.9745,VALID,0.112286,VALID,23.0769,VALID,57,VALID,0.151953,
2009-10-12, 00:05:05,VALID,1002.44,VALID,0,VALID,92.9898,VALID,0.112286,VALID,23.0556,VALID,57,VALID,0.307031,
2009-10-12, 00:06:05,VALID,1002.43,VALID,0,VALID,92.9669,VALID,0,VALID,23.0556,VALID,57,VALID,0,
2009-10-12, 00:07:05,VALID,1002.41,VALID,0,VALID,92.9364,VALID,0.112286,VALID,23.0751,VALID,57,VALID,0,
2009-10-12, 00:08:05,VALID,1002.39,VALID,0,VALID,92.9593,VALID,0,VALID,23.0751,VALID,57,VALID,0,
2009-10-12, 00:09:05,VALID,1002.39,VALID,0,VALID,92.9593,VALID,0,VALID,23.0946,VALID,57,VALID,0,
2009-10-12, 00:10:05,VALID,1002.38,VALID,0,VALID,92.9517,VALID,0.112286,VALID,23.0946,VALID,57,VALID,0,
2009-10-12, 00:11:05,VALID,1002.37,VALID,0,VALID,92.9745,VALID,0,VALID,23.1141,VALID,57,VALID,0,
2009-10-12, 00:12:05,VALID,1002.37,VALID,0,VALID,92.8143,VALID,0.112286,VALID,23.1159,VALID,40,VALID,0,
2009-10-12, 00:13:05,VALID,1002.36,VALID,0,VALID,92.6846,VALID,0,VALID,23.0361,VALID,24,VALID,0,
2009-10-12, 00:14:05,VALID,1002.33,VALID,0,VALID,92.7609,VALID,0,VALID,23.0183,VALID,24,VALID,0.0726563,
2009-10-12, 00:15:05,VALID,1002.33,VALID,0,VALID,92.8525,VALID,0,VALID,23.0183,VALID,24,VALID,0.342187,
2009-10-12, 00:16:05,VALID,1002.32,VALID,0,VALID,92.9745,VALID,0,VALID,23.0183,VALID,24,VALID,0.464844,
2009-10-12, 00:17:05,VALID,1002.31,VALID,0,VALID,93.1729,VALID,0,VALID,23.0769,VALID,95,VALID,0.682813,
2009-10-12, 00:18:05,VALID,1002.29,VALID,0,VALID,93.1805,VALID,0,VALID,23.0964,VALID,103,VALID,0.670313,
2009-10-12, 00:19:05,VALID,1002.3,VALID,0,VALID,93.1348,VALID,0,VALID,23.1159,VALID,104,VALID,0.628125,
2009-10-12, 00:20:05,VALID,1002.29,VALID,0,VALID,93.0814,VALID,0,VALID,23.1566,VALID,104,VALID,0.463672,
2009-10-12, 00:21:05,VALID,1002.32,VALID,0,VALID,92.9974,VALID,0,VALID,23.1549,VALID,104,VALID,0.432422,
2009-10-12, 00:22:05,VALID,1002.34,VALID,0,VALID,92.9898,VALID,0,VALID,23.1744,VALID,104,VALID,0.426562,
2009-10-12, 00:23:05,VALID,1002.3,VALID,0,VALID,92.9669,VALID,0,VALID,23.1939,VALID,104,VALID,0.359766,
2009-10-12, 00:24:05,VALID,1002.3,VALID,0,VALID,92.8983,VALID,0,VALID,23.2134,VALID,105,VALID,0.341797,
2009-10-12, 00:25:05,VALID,1002.29,VALID,0,VALID,92.7914,VALID,0,VALID,23.2347,VALID,107,VALID,0.464844,
2009-10-12, 00:26:05,VALID,1002.25,VALID,0,VALID,92.8677,VALID,0,VALID,23.2329,VALID,122,VALID,0.561719,
2009-10-12, 00:27:05,VALID,1002.23,VALID,0,VALID,92.8677,VALID,0,VALID,23.2737,VALID,122,VALID,0.636328,
2009-10-12, 00:28:05,VALID,1002.24,VALID,0,VALID,92.8372,VALID,0,VALID,23.2915,VALID,122,VALID,0.496094,
2009-10-12, 00:29:05,VALID,1002.22,VALID,0,VALID,92.7685,VALID,0,VALID,23.2915,VALID,122,VALID,0.349609,
2009-10-12, 00:30:05,VALID,1002.21,VALID,0,VALID,92.616,VALID,0,VALID,23.311,VALID,122,VALID,0.322656,
2009-10-12, 00:31:05,VALID,1002.16,VALID,0,VALID,92.5702,VALID,0,VALID,23.3127,VALID,122,VALID,0.216016,
2009-10-12, 00:32:05,VALID,1002.19,VALID,0,VALID,92.532,VALID,0,VALID,23.3127,VALID,122,VALID,0,
2009-10-12, 00:33:05,VALID,1002.19,VALID,0,VALID,92.4557,VALID,0,VALID,23.3127,VALID,122,VALID,0,
2009-10-12, 00:34:05,VALID,1002.2,VALID,0,VALID,92.3871,VALID,0,VALID,23.2915,VALID,122,VALID,0,
2009-10-12, 00:35:05,VALID,1002.22,VALID,0,VALID,92.3947,VALID,0,VALID,23.2932,VALID,122,VALID,0,
2009-10-12, 00:36:05,VALID,1002.18,VALID,0,VALID,92.4252,VALID,0,VALID,23.2719,VALID,122,VALID,0.03125,
2009-10-12, 00:37:05,VALID,1002.19,VALID,0,VALID,92.3566,VALID,0,VALID,23.2524,VALID,122,VALID,0.442969,
2009-10-12, 00:38:05,VALID,1002.21,VALID,0,VALID,92.3184,VALID,0,VALID,23.2134,VALID,116,VALID,0.515234,
2009-10-12, 00:39:05,VALID,1002.2,VALID,0,VALID,92.0666,VALID,0,VALID,23.1939,VALID,70,VALID,0.609766,
2009-10-12, 00:40:05,VALID,1002.22,VALID,0,VALID,92.1963,VALID,0,VALID,23.1744,VALID,64,VALID,0.618359,
2009-10-12, 00:41:05,VALID,1002.2,VALID,0,VALID,91.9293,VALID,0,VALID,23.1566,VALID,64,VALID,0.571875,
2009-10-12, 00:42:05,VALID,1002.2,VALID,0,VALID,92.0743,VALID,0,VALID,23.1354,VALID,64,VALID,0.498047,
2009-10-12, 00:43:05,VALID,1002.22,VALID,0,VALID,91.6851,VALID,0,VALID,23.0769,VALID,56,VALID,0.667578,
2009-10-12, 00:44:05,VALID,1002.18,VALID,0,VALID,92.1658,VALID,0,VALID,23.0573,VALID,51,VALID,0.559766,
2009-10-12, 00:45:05,VALID,1002.21,VALID,0,VALID,92.3184,VALID,0,VALID,23.0573,VALID,51,VALID,0.444141,
2009-10-12, 00:46:05,VALID,1002.19,VALID,0,VALID,92.41,VALID,0,VALID,23.0378,VALID,51,VALID,0.308203,
2009-10-12, 00:47:05,VALID,1002.2,VALID,0,VALID,92.4939,VALID,0,VALID,23.0183,VALID,51,VALID,0.233594,
2009-10-12, 00:48:05,VALID,1002.2,VALID,0,VALID,92.3794,VALID,0,VALID,22.9793,VALID,51,VALID,0.223047,
2009-10-12, 00:49:05,VALID,1002.21,VALID,0,VALID,92.5854,VALID,0,VALID,22.9793,VALID,51,VALID,0.111328,
2009-10-12, 00:50:05,VALID,1002.19,VALID,0,VALID,92.5168,VALID,0,VALID,22.9793,VALID,51,VALID,0.143359,
2009-10-12, 00:51:05,VALID,1002.16,VALID,0,VALID,92.6465,VALID,0,VALID,22.9811,VALID,51,VALID,0.123828,
2009-10-12, 00:52:05,VALID,1002.16,VALID,0,VALID,92.6923,VALID,0,VALID,22.9598,VALID,51,VALID,0.163281,
2009-10-12, 00:53:05,VALID,1002.13,VALID,0,VALID,92.7609,VALID,0,VALID,22.9793,VALID,51,VALID,0.230469,
2009-10-12, 00:54:05,VALID,1002.17,VALID,0,VALID,92.7685,VALID,0,VALID,22.9598,VALID,51,VALID,0.277734,
2009-10-12, 00:55:05,VALID,1002.13,VALID,0,VALID,92.8296,VALID,0,VALID,22.9598,VALID,51,VALID,0.481641,
2009-10-12, 00:56:05,VALID,1002.15,VALID,0,VALID,92.9135,VALID,0,VALID,22.9811,VALID,45,VALID,0.628125,
2009-10-12, 00:57:05,VALID,1002.15,VALID,0,VALID,92.883,VALID,0,VALID,22.9403,VALID,29,VALID,0.839063,
2009-10-12, 00:58:05,VALID,1002.17,VALID,0,VALID,92.8677,VALID,0,VALID,22.9208,VALID,29,VALID,0.817187,
2009-10-12, 00:59:05,VALID,1002.14,VALID,0,VALID,92.8601,VALID,0,VALID,22.9013,VALID,29,VALID,0.753516,
2009-10-12, 01:00:05,VALID,1002.17,VALID,0,VALID,92.7991,VALID,0,VALID,22.8818,VALID,29,VALID,0.782422,
2009-10-12, 01:01:05,VALID,1002.13,VALID,0,VALID,92.7991,VALID,0,VALID,22.8818,VALID,29,VALID,0.650781,
2009-10-12, 01:02:05,VALID,1002.13,VALID,0,VALID,92.6923,VALID,0,VALID,22.8623,VALID,29,VALID,0.410156,
2009-10-12, 01:03:05,VALID,1002.14,VALID,0,VALID,92.5931,VALID,0,VALID,22.8445,VALID,29,VALID,0.372656,
2009-10-12, 01:04:05,VALID,1002.13,VALID,0,VALID,92.7304,VALID,0,VALID,22.8445,VALID,29,VALID,0.434375,
2009-10-12, 01:05:05,VALID,1002.14,VALID,0,VALID,92.7151,VALID,0,VALID,22.8232,VALID,29,VALID,0.359766,
2009-10-12, 01:06:05,VALID,1002.1,VALID,0,VALID,92.7838,VALID,0,VALID,22.8037,VALID,29,VALID,0.292969,
2009-10-12, 01:07:05,VALID,1002.12,VALID,0,VALID,92.7457,VALID,0,VALID,22.8232,VALID,29,VALID,0.423047,
2009-10-12, 01:08:05,VALID,1002.09,VALID,0,VALID,92.8143,VALID,0,VALID,22.8037,VALID,29,VALID,0.55625,
2009-10-12, 01:09:05,VALID,1002.07,VALID,0,VALID,92.9593,VALID,0,VALID,22.8445,VALID,25,VALID,0.669141,
2009-10-12, 01:10:05,VALID,1002.05,VALID,0,VALID,93.0432,VALID,0,VALID,22.8623,VALID,18,VALID,0.760938,
2009-10-12, 01:11:05,VALID,1002.04,VALID,0,VALID,92.8906,VALID,0,VALID,22.8427,VALID,355,VALID,0.637109,
2009-10-12, 01:12:05,VALID,1002.03,VALID,0,VALID,92.8296,VALID,0,VALID,22.8427,VALID,355,VALID,0.473437,
2009-10-12, 01:13:05,VALID,1002.01,VALID,0,VALID,92.738,VALID,0,VALID,22.8427,VALID,355,VALID,0.428516,
2009-10-12, 01:14:05,VALID,1002.01,VALID,0,VALID,92.8143,VALID,0,VALID,22.8232,VALID,355,VALID,0.430859,
2009-10-12, 01:15:05,VALID,1002,VALID,0,VALID,92.8601,VALID,0,VALID,22.8427,VALID,355,VALID,0.456641,
2009-10-12, 01:16:05,VALID,1001.98,VALID,0,VALID,92.9059,VALID,0,VALID,22.8427,VALID,355,VALID,0.355469,
2009-10-12, 01:17:05,VALID,1001.96,VALID,0,VALID,92.8677,VALID,0,VALID,22.864,VALID,355,VALID,0.435547,
2009-10-12, 01:18:05,VALID,1001.96,VALID,0,VALID,92.8143,VALID,0,VALID,22.8232,VALID,355,VALID,0.262109,
2009-10-12, 01:19:05,VALID,1001.94,VALID,0,VALID,92.8906,VALID,0,VALID,22.864,VALID,355,VALID,0.216797,
2009-10-12, 01:20:05,VALID,1001.94,VALID,0,VALID,92.883,VALID,0,VALID,22.8427,VALID,355,VALID,0,
2009-10-12, 01:21:05,VALID,1001.94,VALID,0,VALID,92.8983,VALID,0,VALID,22.8427,VALID,355,VALID,0,
2009-10-12, 01:22:05,VALID,1001.93,VALID,0,VALID,92.8754,VALID,0,VALID,22.8445,VALID,355,VALID,0,
2009-10-12, 01:23:05,VALID,1001.94,VALID,0,VALID,92.9593,VALID,0,VALID,22.8427,VALID,355,VALID,0,
2009-10-12, 01:24:05,VALID,1001.96,VALID,0,VALID,93.0127,VALID,0,VALID,22.8623,VALID,355,VALID,0,
2009-10-12, 01:25:05,VALID,1001.94,VALID,0,VALID,93.0585,VALID,0,VALID,22.8835,VALID,355,VALID,0,
2009-10-12, 01:26:05,VALID,1001.96,VALID,0,VALID,93.0737,VALID,0,VALID,22.9013,VALID,355,VALID,0,
2009-10-12, 01:27:05,VALID,1001.93,VALID,0,VALID,93.1119,VALID,0,VALID,22.942,VALID,355,VALID,0,
2009-10-12, 01:28:05,VALID,1001.95,VALID,0,VALID,93.1348,VALID,0,VALID,22.9403,VALID,355,VALID,0,
2009-10-12, 01:29:05,VALID,1001.94,VALID,0,VALID,93.1653,VALID,0,VALID,22.9793,VALID,355,VALID,0,
2009-10-12, 01:30:05,VALID,1001.92,VALID,0,VALID,93.1653,VALID,0,VALID,23.0183,VALID,355,VALID,0,
2009-10-12, 01:31:05,VALID,1001.92,VALID,0,VALID,93.0966,VALID,0,VALID,23.0183,VALID,355,VALID,0,
2009-10-12, 01:32:05,VALID,1001.92,VALID,0,VALID,93.0432,VALID,0,VALID,23.0378,VALID,355,VALID,0,
2009-10-12, 01:33:05,VALID,1001.92,VALID,0,VALID,92.9593,VALID,0,VALID,23.0591,VALID,355,VALID,0,
2009-10-12, 01:34:04,VALID,1001.92,VALID,0,VALID,92.9135,VALID,0,VALID,23.0573,VALID,355,VALID,0,
2009-10-12, 01:35:04,VALID,1001.93,VALID,0,VALID,92.883,VALID,0,VALID,23.0769,VALID,355,VALID,0,
2009-10-12, 01:36:04,VALID,1001.96,VALID,0,VALID,92.8296,VALID,0,VALID,23.0964,VALID,355,VALID,0,
2009-10-12, 01:37:04,VALID,1002,VALID,0,VALID,92.7685,VALID,0,VALID,23.0964,VALID,355,VALID,0,
2009-10-12, 01:38:04,VALID,1002,VALID,0,VALID,92.738,VALID,0,VALID,23.1159,VALID,355,VALID,0,
2009-10-12, 01:39:04,VALID,1002.03,VALID,0,VALID,92.7151,VALID,0,VALID,23.1566,VALID,355,VALID,0,
2009-10-12, 01:40:04,VALID,1002.05,VALID,0,VALID,92.6465,VALID,0,VALID,23.1354,VALID,355,VALID,0,
2009-10-12, 01:41:04,VALID,1002.03,VALID,0,VALID,92.5931,VALID,0,VALID,23.1549,VALID,355,VALID,0,
2009-10-12, 01:42:04,VALID,1002.02,VALID,0,VALID,92.5397,VALID,0,VALID,23.1354,VALID,355,VALID,0,
2009-10-12, 01:43:04,VALID,1002.02,VALID,0,VALID,92.4863,VALID,0,VALID,23.1159,VALID,355,VALID,0,
2009-10-12, 01:44:04,VALID,1001.99,VALID,0,VALID,92.4634,VALID,0,VALID,23.0964,VALID,355,VALID,0,
2009-10-12, 01:45:04,VALID,1001.98,VALID,0,VALID,92.4939,VALID,0,VALID,23.0964,VALID,355,VALID,0,
2009-10-12, 01:46:04,VALID,1001.95,VALID,0,VALID,92.532,VALID,0,VALID,23.1159,VALID,355,VALID,0.490625,
2009-10-12, 01:47:04,VALID,1001.92,VALID,0,VALID,92.4863,VALID,0,VALID,23.1549,VALID,113,VALID,0.825781,
2009-10-12, 01:48:04,VALID,1001.93,VALID,0,VALID,92.1124,VALID,0,VALID,23.2329,VALID,120,VALID,0.944922,
2009-10-12, 01:49:04,VALID,1001.93,VALID,0,VALID,91.5326,VALID,0,VALID,23.311,VALID,111,VALID,0.775,
2009-10-12, 01:50:04,VALID,1001.92,VALID,0,VALID,90.8993,VALID,0,VALID,23.3695,VALID,112,VALID,1.06914,
2009-10-12, 01:51:04,VALID,1001.9,VALID,0,VALID,90.1974,VALID,0,VALID,23.4085,VALID,114,VALID,1.14688,
2009-10-12, 01:52:04,VALID,1001.9,VALID,0,VALID,89.6786,VALID,0,VALID,23.4688,VALID,113,VALID,1.00664,
2009-10-12, 01:53:04,VALID,1001.89,VALID,0,VALID,89.3886,VALID,0,VALID,23.4866,VALID,121,VALID,1.03164,
2009-10-12, 01:54:04,VALID,1001.88,VALID,0,VALID,89.2818,VALID,0,VALID,23.4475,VALID,124,VALID,1.31016,
2009-10-12, 01:55:04,VALID,1001.88,VALID,0,VALID,89.0758,VALID,0,VALID,23.4688,VALID,127,VALID,1.16406,
2009-10-12, 01:56:04,VALID,1001.89,VALID,0,VALID,88.9919,VALID,0,VALID,23.4671,VALID,126,VALID,0.987891,
2009-10-12, 01:57:04,VALID,1001.84,VALID,0,VALID,88.9156,VALID,0,VALID,23.4671,VALID,129,VALID,1.06914,
2009-10-12, 01:58:04,VALID,1001.85,VALID,0,VALID,88.8851,VALID,0,VALID,23.4688,VALID,124,VALID,1.09609,
2009-10-12, 01:59:04,VALID,1001.81,VALID,0,VALID,88.9461,VALID,0,VALID,23.4671,VALID,120,VALID,1.1707,
2009-10-12, 02:00:04,VALID,1001.78,VALID,0,VALID,89.0606,VALID,0,VALID,23.4067,VALID,115,VALID,1.03008,
2009-10-12, 02:01:04,VALID,1001.77,VALID,0,VALID,89.175,VALID,0,VALID,23.389,VALID,113,VALID,1.08047,
2009-10-12, 02:02:04,VALID,1001.8,VALID,0,VALID,89.5412,VALID,0.112286,VALID,23.3287,VALID,111,VALID,1.1375,
2009-10-12, 02:03:04,VALID,1001.78,VALID,0,VALID,89.732,VALID,0,VALID,23.3092,VALID,108,VALID,1.05117,
2009-10-12, 02:04:04,VALID,1001.77,VALID,0,VALID,89.7243,VALID,0,VALID,23.2702,VALID,108,VALID,0.887891,
2009-10-12, 02:05:04,VALID,1001.79,VALID,0,VALID,89.9074,VALID,0,VALID,23.2702,VALID,107,VALID,0.852344,
2009-10-12, 02:06:04,VALID,1001.76,VALID,0,VALID,90.0448,VALID,0,VALID,23.2702,VALID,107,VALID,0.795313,
2009-10-12, 02:07:04,VALID,1001.75,VALID,0,VALID,90.0448,VALID,0.112286,VALID,23.2507,VALID,107,VALID,0.720312,
2009-10-12, 02:08:04,VALID,1001.75,VALID,0,VALID,90.1592,VALID,0,VALID,23.2312,VALID,107,VALID,0.746875,
2009-10-12, 02:09:04,VALID,1001.76,VALID,0,VALID,90.1592,VALID,0,VALID,23.2507,VALID,117,VALID,0.703906,
2009-10-12, 02:10:04,VALID,1001.77,VALID,0,VALID,89.9151,VALID,0.112286,VALID,23.2719,VALID,125,VALID,0.623047,
2009-10-12, 02:11:04,VALID,1001.74,VALID,0,VALID,89.7014,VALID,0,VALID,23.2507,VALID,126,VALID,0.724609,
2009-10-12, 02:12:04,VALID,1001.72,VALID,0,VALID,89.4497,VALID,0.112286,VALID,23.2702,VALID,129,VALID,0.513672,
2009-10-12, 02:13:04,VALID,1001.73,VALID,0,VALID,89.2971,VALID,0,VALID,23.2915,VALID,138,VALID,0.543359,
2009-10-12, 02:14:04,VALID,1001.74,VALID,0,VALID,89.1063,VALID,0,VALID,23.3127,VALID,144,VALID,0.659375,
2009-10-12, 02:15:04,VALID,1001.72,VALID,0,VALID,88.9232,VALID,0,VALID,23.2915,VALID,144,VALID,0.637891,
2009-10-12, 02:16:04,VALID,1001.7,VALID,0,VALID,88.908,VALID,0,VALID,23.2915,VALID,130,VALID,0.779297,
2009-10-12, 02:17:04,VALID,1001.7,VALID,0,VALID,88.6714,VALID,0,VALID,23.3323,VALID,137,VALID,1.03242,
2009-10-12, 02:18:04,VALID,1001.72,VALID,0,VALID,88.3815,VALID,0,VALID,23.35,VALID,135,VALID,1.53047,
2009-10-12, 02:19:04,VALID,1001.68,VALID,0,VALID,88.0077,VALID,0,VALID,23.428,VALID,131,VALID,1.29688,
2009-10-12, 02:20:04,VALID,1001.7,VALID,0,VALID,87.6109,VALID,0,VALID,23.4866,VALID,143,VALID,1.22539,
2009-10-12, 02:21:04,VALID,1001.69,VALID,0,VALID,87.4278,VALID,0,VALID,23.5469,VALID,137,VALID,1.10234,
2009-10-12, 02:22:04,VALID,1001.73,VALID,0,VALID,87.2829,VALID,0,VALID,23.5646,VALID,151,VALID,0.8875,
2009-10-12, 02:23:04,VALID,1001.72,VALID,0,VALID,87.1837,VALID,0,VALID,23.5859,VALID,151,VALID,0.747656,
2009-10-12, 02:24:04,VALID,1001.72,VALID,0,VALID,87.0616,VALID,0,VALID,23.5646,VALID,154,VALID,1.0207,
2009-10-12, 02:25:04,VALID,1001.71,VALID,0,VALID,86.7869,VALID,0,VALID,23.5859,VALID,135,VALID,0.8875,
2009-10-12, 02:26:04,VALID,1001.72,VALID,0,VALID,86.5809,VALID,0,VALID,23.6036,VALID,139,VALID,1.26914,
2009-10-12, 02:27:04,VALID,1001.7,VALID,0,VALID,86.5351,VALID,0,VALID,23.6232,VALID,122,VALID,0.540234,
2009-10-12, 02:28:04,VALID,1001.71,VALID,0,VALID,86.5886,VALID,0,VALID,23.6232,VALID,118,VALID,0.829687,
2009-10-12, 02:29:04,VALID,1001.7,VALID,0,VALID,86.7259,VALID,0,VALID,23.5841,VALID,121,VALID,0.483594,
2009-10-12, 02:30:04,VALID,1001.69,VALID,0,VALID,86.848,VALID,0,VALID,23.5646,VALID,121,VALID,0.116406,
2009-10-12, 02:31:04,VALID,1001.67,VALID,0,VALID,87.0387,VALID,0,VALID,23.5469,VALID,121,VALID,0.0316406,
2009-10-12, 02:32:04,VALID,1001.68,VALID,0,VALID,87.26,VALID,0,VALID,23.4671,VALID,121,VALID,0.111719,
2009-10-12, 02:33:04,VALID,1001.68,VALID,0,VALID,87.4889,VALID,0,VALID,23.428,VALID,121,VALID,0.0890625,
2009-10-12, 02:34:04,VALID,1001.69,VALID,0,VALID,87.733,VALID,0,VALID,23.3908,VALID,121,VALID,0,
2009-10-12, 02:35:04,VALID,1001.71,VALID,0,VALID,88.0687,VALID,0,VALID,23.3713,VALID,112,VALID,0.0625,
2009-10-12, 02:36:04,VALID,1001.68,VALID,0,VALID,88.2213,VALID,0,VALID,23.2915,VALID,112,VALID,0,
2009-10-12, 02:37:04,VALID,1001.67,VALID,0,VALID,88.557,VALID,0,VALID,23.2329,VALID,113,VALID,0.376563,
2009-10-12, 02:38:04,VALID,1001.69,VALID,0,VALID,88.7172,VALID,0,VALID,23.2134,VALID,115,VALID,0.459375,
2009-10-12, 02:39:04,VALID,1001.67,VALID,0,VALID,88.9919,VALID,0,VALID,23.1744,VALID,115,VALID,0.482031,
2009-10-12, 02:40:04,VALID,1001.65,VALID,0,VALID,89.2589,VALID,0,VALID,23.1354,VALID,107,VALID,1.00195,
2009-10-12, 02:41:04,VALID,1001.62,VALID,0,VALID,89.5489,VALID,0,VALID,23.0964,VALID,103,VALID,1.10312,
2009-10-12, 02:42:04,VALID,1001.63,VALID,0,VALID,89.7091,VALID,0,VALID,23.0964,VALID,109,VALID,1.03711,
2009-10-12, 02:43:04,VALID,1001.61,VALID,0,VALID,89.8617,VALID,0,VALID,23.0573,VALID,100,VALID,0.996875,
2009-10-12, 02:44:04,VALID,1001.63,VALID,0,VALID,89.9685,VALID,0,VALID,23.0378,VALID,100,VALID,0.919141,
2009-10-12, 02:45:04,VALID,1001.62,VALID,0,VALID,89.9685,VALID,0,VALID,23.0183,VALID,101,VALID,0.732813,
2009-10-12, 02:46:04,VALID,1001.6,VALID,0,VALID,90.0219,VALID,0.112286,VALID,22.9988,VALID,102,VALID,0.6875,
2009-10-12, 02:47:04,VALID,1001.61,VALID,0,VALID,90.0829,VALID,0,VALID,22.9793,VALID,103,VALID,0.535547,
2009-10-12, 02:48:04,VALID,1001.6,VALID,0,VALID,90.0753,VALID,0,VALID,22.9793,VALID,103,VALID,0.305078,
2009-10-12, 02:49:04,VALID,1001.61,VALID,0,VALID,90.0524,VALID,0,VALID,22.9598,VALID,103,VALID,0.34375,
2009-10-12, 02:50:04,VALID,1001.6,VALID,0,VALID,90.0677,VALID,0,VALID,22.9793,VALID,92,VALID,0.410156,
2009-10-12, 02:51:04,VALID,1001.61,VALID,0,VALID,89.9685,VALID,0,VALID,22.9793,VALID,93,VALID,0.305078,
2009-10-12, 02:52:04,VALID,1001.65,VALID,0,VALID,89.9227,VALID,0,VALID,22.9793,VALID,93,VALID,0.253516,
2009-10-12, 02:53:04,VALID,1001.69,VALID,0,VALID,89.8235,VALID,0,VALID,22.9581,VALID,93,VALID,0.191016,
2009-10-12, 02:54:04,VALID,1001.67,VALID,0,VALID,89.7625,VALID,0,VALID,22.9793,VALID,93,VALID,0.249219,
2009-10-12, 02:55:04,VALID,1001.7,VALID,0,VALID,89.6328,VALID,0,VALID,22.9988,VALID,93,VALID,0.158203,
2009-10-12, 02:56:04,VALID,1001.71,VALID,0,VALID,89.5336,VALID,0,VALID,23.0183,VALID,93,VALID,0.0664063,
2009-10-12, 02:57:04,VALID,1001.7,VALID,0,VALID,89.4573,VALID,0,VALID,23.0183,VALID,93,VALID,0.116797,
2009-10-12, 02:58:04,VALID,1001.69,VALID,0,VALID,89.381,VALID,0,VALID,23.0183,VALID,93,VALID,0.21875,
2009-10-12, 02:59:04,VALID,1001.66,VALID,0,VALID,89.3047,VALID,0,VALID,23.0378,VALID,93,VALID,0.426953,
2009-10-12, 03:00:04,VALID,1001.66,VALID,0,VALID,89.236,VALID,0,VALID,23.0573,VALID,99,VALID,0.517969,
2009-10-12, 03:01:04,VALID,1001.64,VALID,0,VALID,88.9156,VALID,0,VALID,23.0769,VALID,110,VALID,0.432422,
2009-10-12, 03:02:04,VALID,1001.67,VALID,0,VALID,88.7859,VALID,0,VALID,23.0964,VALID,90,VALID,0.762891,
2009-10-12, 03:03:04,VALID,1001.67,VALID,0,VALID,88.557,VALID,0,VALID,23.0964,VALID,91,VALID,0.640234,
2009-10-12, 03:04:04,VALID,1001.67,VALID,0,VALID,88.412,VALID,0,VALID,23.0964,VALID,91,VALID,0.781641,
2009-10-12, 03:05:04,VALID,1001.72,VALID,0,VALID,88.5265,VALID,0,VALID,23.0964,VALID,81,VALID,0.719922,
2009-10-12, 03:06:04,VALID,1001.7,VALID,0,VALID,88.618,VALID,0,VALID,23.0964,VALID,80,VALID,0.669141,
2009-10-12, 03:07:04,VALID,1001.73,VALID,0,VALID,88.6409,VALID,0,VALID,23.0573,VALID,80,VALID,0.536328,
2009-10-12, 03:08:04,VALID,1001.68,VALID,0,VALID,88.8851,VALID,0,VALID,23.0573,VALID,80,VALID,0.384375,
2009-10-12, 03:09:04,VALID,1001.74,VALID,0,VALID,88.8927,VALID,0,VALID,23.0378,VALID,80,VALID,0.114063,
2009-10-12, 03:10:04,VALID,1001.72,VALID,0,VALID,88.824,VALID,0,VALID,23.0183,VALID,80,VALID,0.04375,
2009-10-12, 03:11:04,VALID,1001.72,VALID,0,VALID,88.7477,VALID,0,VALID,23.0183,VALID,80,VALID,0,
2009-10-12, 03:12:04,VALID,1001.67,VALID,0,VALID,88.4731,VALID,0,VALID,22.9793,VALID,80,VALID,0.30625,
2009-10-12, 03:13:04,VALID,1001.69,VALID,0,VALID,89.1368,VALID,0,VALID,22.9208,VALID,80,VALID,0.309375,
2009-10-12, 03:14:04,VALID,1001.66,VALID,0,VALID,89.526,VALID,0,VALID,22.8623,VALID,80,VALID,0.233594,
2009-10-12, 03:15:04,VALID,1001.67,VALID,0,VALID,90.0371,VALID,0,VALID,22.7842,VALID,80,VALID,0.202344,
2009-10-12, 03:16:04,VALID,1001.67,VALID,0,VALID,90.4415,VALID,0,VALID,22.7842,VALID,80,VALID,0.2625,
2009-10-12, 03:17:04,VALID,1001.64,VALID,0,VALID,90.6399,VALID,0,VALID,22.7452,VALID,80,VALID,0.180078,
2009-10-12, 03:18:04,VALID,1001.66,VALID,0,VALID,90.9909,VALID,0,VALID,22.7257,VALID,80,VALID,0.228906,
2009-10-12, 03:19:04,VALID,1001.63,VALID,0,VALID,91.2655,VALID,0,VALID,22.7257,VALID,80,VALID,0.233984,
2009-10-12, 03:20:04,VALID,1001.65,VALID,0,VALID,91.4334,VALID,0,VALID,22.7257,VALID,80,VALID,0.336328,
2009-10-12, 03:21:04,VALID,1001.6,VALID,0,VALID,91.5326,VALID,0,VALID,22.7257,VALID,80,VALID,0.298828,
2009-10-12, 03:22:04,VALID,1001.64,VALID,0,VALID,91.3876,VALID,0,VALID,22.7257,VALID,80,VALID,0.0472656,
2009-10-12, 03:23:04,VALID,1001.62,VALID,0,VALID,91.4486,VALID,0,VALID,22.6867,VALID,80,VALID,0.165625,
2009-10-12, 03:24:04,VALID,1001.6,VALID,0,VALID,91.3952,VALID,0,VALID,22.6672,VALID,80,VALID,0.332031,
2009-10-12, 03:25:04,VALID,1001.57,VALID,0,VALID,91.4715,VALID,0,VALID,22.6282,VALID,80,VALID,0.407031,
2009-10-12, 03:26:04,VALID,1001.56,VALID,0,VALID,91.7385,VALID,0,VALID,22.6282,VALID,80,VALID,0.407813,
2009-10-12, 03:27:04,VALID,1001.55,VALID,0,VALID,91.8377,VALID,0,VALID,22.6087,VALID,78,VALID,0.444531,
2009-10-12, 03:28:04,VALID,1001.54,VALID,0,VALID,92.0132,VALID,0,VALID,22.5892,VALID,1,VALID,0.41875,
2009-10-12, 03:29:04,VALID,1001.5,VALID,0,VALID,92.1506,VALID,0,VALID,22.5892,VALID,1,VALID,0.46875,
2009-10-12, 03:30:04,VALID,1001.52,VALID,0,VALID,92.2116,VALID,0,VALID,22.5696,VALID,1,VALID,0.417969,
2009-10-12, 03:31:04,VALID,1001.52,VALID,0,VALID,92.1506,VALID,0,VALID,22.5501,VALID,1,VALID,0.363281,
2009-10-12, 03:32:04,VALID,1001.49,VALID,0,VALID,92.2803,VALID,0,VALID,22.5501,VALID,1,VALID,0.341016,
2009-10-12, 03:33:04,VALID,1001.47,VALID,0,VALID,92.3566,VALID,0,VALID,22.5501,VALID,1,VALID,0.434766,
2009-10-12, 03:34:04,VALID,1001.49,VALID,0,VALID,92.3337,VALID,0,VALID,22.5714,VALID,1,VALID,0.498828,
2009-10-12, 03:35:04,VALID,1001.47,VALID,0,VALID,92.3947,VALID,0,VALID,22.5323,VALID,1,VALID,0.517969,
2009-10-12, 03:36:04,VALID,1001.48,VALID,0,VALID,92.471,VALID,0,VALID,22.5519,VALID,1,VALID,0.549609,
2009-10-12, 03:37:04,VALID,1001.48,VALID,0,VALID,92.3794,VALID,0,VALID,22.4916,VALID,1,VALID,0.444531,
2009-10-12, 03:38:04,VALID,1001.47,VALID,0,VALID,92.2345,VALID,0,VALID,22.4526,VALID,1,VALID,0.365234,
2009-10-12, 03:39:04,VALID,1001.51,VALID,0,VALID,92.2268,VALID,0,VALID,22.4348,VALID,1,VALID,0.396875,
2009-10-12, 03:40:04,VALID,1001.5,VALID,0,VALID,92.4176,VALID,0,VALID,22.4153,VALID,1,VALID,0.341016,
2009-10-12, 03:41:04,VALID,1001.51,VALID,0,VALID,92.41,VALID,0,VALID,22.3941,VALID,1,VALID,0.50625,
2009-10-12, 03:42:04,VALID,1001.52,VALID,0,VALID,92.3031,VALID,0,VALID,22.3763,VALID,17,VALID,0.560547,
2009-10-12, 03:43:04,VALID,1001.52,VALID,0,VALID,92.1506,VALID,0,VALID,22.3356,VALID,50,VALID,0.809375,
2009-10-12, 03:44:04,VALID,1001.49,VALID,0,VALID,92.1124,VALID,0,VALID,22.3161,VALID,50,VALID,1.01328,
2009-10-12, 03:45:04,VALID,1001.49,VALID,0,VALID,92.2574,VALID,0,VALID,22.3178,VALID,50,VALID,1.13672,
2009-10-12, 03:46:04,VALID,1001.53,VALID,0,VALID,92.0437,VALID,0,VALID,22.2983,VALID,38,VALID,0.898828,
2009-10-12, 03:47:04,VALID,1001.53,VALID,0,VALID,92.0666,VALID,0,VALID,22.2788,VALID,38,VALID,0.918359,